Regional Weather Roundup
Issued by NWS

Home | Current Version | Previous Version | Graphics & Text | Print | Product List | Glossary On
Versions: 1 2 3 4 5 6 7 8 9 10 11 12 13 14 15 16 17 18 19 20 21 22 23 24 25 26 27 28 29 30 31 32 33 34 35 36 37 38 39 40 41 42 43 44 45 46 47 48 49 50
000
ASUS43 KDTX 301210
RWRMI
MICHIGAN HOURLY REGIONAL WEATHER ROUNDUP
NATIONAL WEATHER SERVICE DETROIT/PONTIAC MI
800 AM EDT MON MAY 30 2016

NOTE: "FAIR" INDICATES FEW OR NO CLOUDS BELOW 12,000 FEET WITH NO
SIGNIFICANT WEATHER AND/OR OBSTRUCTION TO VISIBILITY.

MIZ047>049-052>055-059>063-066>070-074>076-081>083-301300-
SOUTHEAST LOWER MICHIGAN

CITY           SKY/WX    TMP DP  RH WIND       PRES   REMARKS
ADRIAN         SUNNY     64  57  78 W3        30.03R
6HR MIN TEMP:  57; 6HR MAX TEMP:  64;

ALMA           SUNNY     64  59  85 CALM      30.01R
ANN ARBOR      SUNNY     68  58  70 NW8       30.01R
CARO           SUNNY     67  60  78 W3        29.98R
DETROIT CITY   SUNNY     68  57  68 W7        30.00R
6HR MIN TEMP:  64; 6HR MAX TEMP:  69;

DETROIT        MOSUNNY   68  58  70 W5        30.01R
6HR MIN TEMP:  61; 6HR MAX TEMP:  68;

FLINT          SUNNY     69  57  65 W7        30.00R
6HR MIN TEMP:  62; 6HR MAX TEMP:  69;

GROSSE ILE     SUNNY     68  61  77 W5        29.99S
HILLSDALE      SUNNY     67  56  67 W5        30.03R
6HR MIN TEMP:  60; 6HR MAX TEMP:  67;

HOWELL         SUNNY     65  59  79 W6        30.01R

CITY           SKY/WX    TMP DP  RH WIND       PRES   REMARKS
JACKSON        SUNNY     65  59  81 VRB3      30.02R
6HR MIN TEMP:  58; 6HR MAX TEMP:  65;

LAMBERTVILLE   SUNNY     69  58  69 W3        30.02R
6HR MIN TEMP:  59; 6HR MAX TEMP:  69;

LANSING        SUNNY     65  57  75 W6        30.02R
6HR MIN TEMP:  60; 6HR MAX TEMP:  65;

LAPEER         FAIR      65  57  74 CALM      30.00R
6HR MIN TEMP:  61; 6HR MAX TEMP:  65;

MASON          SUNNY     65  57  75 W5        30.01S
MONROE         SUNNY     67  59  77 W7        30.01R
6HR MIN TEMP:  59; 6HR MAX TEMP:  67;

MT. CLEMENS    SUNNY     69  60  72 W6        29.98R
6HR MIN TEMP:  60; 6HR MAX TEMP:  69;

PONTIAC        MOSUNNY   66  57  72 W6        30.00R
6HR MIN TEMP:  62; 6HR MAX TEMP:  66;

PORT HOPE        N/A     68  60  75 W12       29.95R
6HR MIN TEMP:  63; 6HR MAX TEMP:  68;

PORT HURON     SUNNY     64  61  88 W3        29.99R
TRI CITIES     SUNNY     67  58  72 W8        29.99R
6HR MIN TEMP:  62; 6HR MAX TEMP:  67;

MIDLAND        FAIR      65  58  77 W3        29.98S
6HR MIN TEMP:  60; 6HR MAX TEMP:  65;

TROY           SUNNY     69  57  66 W5        30.01S
SAGINAW HB     SUNNY     68  57  68 W5        29.98S
$$
MIZ043>046-050>051-056>058-064>065-071>073-077>080-301300-
SOUTHWEST LOWER MICHIGAN

CITY           SKY/WX    TMP DP  RH WIND       PRES   REMARKS
BATTLE CREEK   SUNNY     65  58  78 SW5       30.03R
6HR MIN TEMP:  59; 6HR MAX TEMP:  65;

BENTON HARBOR  MOSUNNY   65  58  78 W6        30.03R
6HR MIN TEMP:  58; 6HR MAX TEMP:  67;

BIG RAPIDS     SUNNY     61  60  96 CALM      30.00R
6HR MIN TEMP:  56; 6HR MAX TEMP:  63;

COLDWATER      SUNNY     65  59  80 W3        30.03S
6HR MIN TEMP:  58; 6HR MAX TEMP:  65;

FREMONT        FAIR      60  60 100 CALM      30.00S
HOLLAND        SUNNY     64  58  80 SW3       30.02S
6HR MIN TEMP:  58; 6HR MAX TEMP:  65;

GRAND RAPIDS   MOSUNNY   66  58  75 SW6       30.01S
6HR MIN TEMP:  59; 6HR MAX TEMP:  66;

IONIA          FAIR      64  56  73 W3        30.01R
6HR MIN TEMP:  58; 6HR MAX TEMP:  64;

KALAMAZOO      SUNNY     65  57  75 W5        30.03S
6HR MIN TEMP:  59; 6HR MAX TEMP:  65;

LUDINGTON      PTSUNNY   61  58  90 CALM      29.99S
6HR MIN TEMP:  49; 6HR MAX TEMP:  61;

MARSHALL       SUNNY     66  59  79 SW3       30.03R
6HR MIN TEMP:  59; 6HR MAX TEMP:  66;

MOUNT PLEASANT SUNNY     65  58  78 W6        29.99R
6HR MIN TEMP:  59; 6HR MAX TEMP:  65;

MUSKEGON       SUNNY     61  55  81 CALM      30.01R
6HR MIN TEMP:  56; 6HR MAX TEMP:  65;

SOUTH HAVEN    SUNNY     65  59  80 CALM      30.03R
$$
MIZ016>042-301300-
NORTHERN LOWER MICHIGAN

CITY           SKY/WX    TMP DP  RH WIND       PRES   REMARKS
ALPENA         SUNNY     64  56  75 VRB6      29.94R
6HR MIN TEMP:  61; 6HR MAX TEMP:  65;

BEAVER ISLAND  SUNNY     57  55  94 W7        29.95R
6HR MIN TEMP:  52; 6HR MAX TEMP:  57;

BELLAIRE       SUNNY     63  55  76 NW3       29.97R
6HR MIN TEMP:  58; 6HR MAX TEMP:  63;

CADILLAC       MOSUNNY   64  56  77 NW3       29.99R
CHARLEVOIX     SUNNY     60  55  82 W9        29.98R
FRANKFORT      SUNNY     60  58  94 CALM      29.98R
GAYLORD        SUNNY     61  54  77 W9        29.97R
6HR MIN TEMP:  58; 6HR MAX TEMP:  63;

GRAYLING       SUNNY     62  57  83 W5        29.98R
6HR MIN TEMP:  57; 6HR MAX TEMP:  64;

HARBOR SPRINGS SUNNY     56  54  91 SW5       29.95R
HOUGHTON LAKE  SUNNY     62  56  80 W12       29.99R
6HR MIN TEMP:  60; 6HR MAX TEMP:  65; 6HR PCP: TRACE;

OSCODA         SUNNY     67  58  72 W6        29.95R
6HR MIN TEMP:  59; 6HR MAX TEMP:  67;

PELLSTON       SUNNY     63  54  72 W9        29.94R
6HR MIN TEMP:  58; 6HR MAX TEMP:  63;

ROGERS CITY    SUNNY     63  55  74 W8        29.93S
TRAVERSE CITY  MOSUNNY   65  58  78 CALM      29.96R
6HR MIN TEMP:  58; 6HR MAX TEMP:  65;

$$
MIZ007>008-015-301300-
EASTERN UPPER MICHIGAN

CITY           SKY/WX    TMP DP  RH WIND       PRES   REMARKS
KINROSS          N/A     61  57  88 W8        29.90S
6HR MIN TEMP:  55; 6HR MAX TEMP:  61;

MACKINAC ISLAN SUNNY     58  57  99 W10       29.92R
6HR MIN TEMP:  55; 6HR MAX TEMP:  58;

NEWBERRY       SUNNY     60  56  87 W8        29.91S
6HR MIN TEMP:  57; 6HR MAX TEMP:  60;

S. S. MARIE    CLOUDY    54  52  93 NW5       29.90R
6HR MIN TEMP:  53; 6HR MAX TEMP:  60; 6HR PCP: TRACE;

MUNISING         N/A     58  54  86 SW8       29.91R
6HR MIN TEMP:  56; 6HR MAX TEMP:  61;

$$
MIZ004>006-011>014-085-301300-
CENTRAL UPPER MICHIGAN

CITY           SKY/WX    TMP DP  RH WIND       PRES   REMARKS
MANISTIQUE     SUNNY     61  57  88 W3        29.93S
6HR MIN TEMP:  56; 6HR MAX TEMP:  61;

ESCANABA         N/A    N/A N/A N/A W7        29.94R
MENOMINEE      SUNNY     61  55  82 VRB3      29.97S
6HR MIN TEMP:  55; 6HR MAX TEMP:  61;

SAWYER-GWINN   SUNNY     55  54  94 W5        29.94R
$$
MIZ001>003-009>011-084-301300-
WESTERN UPPER MICHIGAN

CITY           SKY/WX    TMP DP  RH WIND       PRES   REMARKS
IRON MOUNTAIN  SUNNY     59  53  80 W7        29.95R
6HR MIN TEMP:  53; 6HR MAX TEMP:  59;

HOUGHTON       SUNNY     55  51  86 W9        29.90S
6HR MIN TEMP:  52; 6HR MAX TEMP:  57;

COPPER HARBOR    N/A     62  54  74 NW13G22   29.86S
6HR MIN TEMP:  58; 6HR MAX TEMP:  62;

IRONWOOD       SUNNY     55  54  94 W8        29.95R
6HR MIN TEMP:  48; 6HR MAX TEMP:  55;

$$

ABBREVIATIONS USED IN REMARKS
   TC - TEMPERATURE IN CELSIUS
  WCI - WIND CHILL INDEX
   HX - HEAT INDEX
  VSB - VISIBILITY





USA.gov is the U.S. government's official web portal to all federal, state and local government web resources and services.